Starlink 32760

operational
NORAD ID: 62568 Int'l Des: 2025-006 Owner: SPXS Country: US Constellation: starlink
LEOCIRCULAR

Starlink 32760について

説明を読み込み中...

リアルタイム位置

3D地球を読み込み中...

次回通過

高度履歴

Altitude vs Time

uPlot chart will show altitude changes over time

軌道要素

1 62568U 25006Q 26033.33371357 .00023294 00000-0 85278-3 0 9999
2 62568 43.0010 132.3841 0000973 227.9628 132.1141 15.27601093 59454
Epoch: Feb 2, 2026 • Age: 17 hours

現在のステータス

高度 491.1 km
速度 7.62 km/s
衛星直下点 -30.73°S, 60.11°W
打ち上げ日 Jan 10, 2025
運用期間 1 years
タイプ internet

技術仕様

分類 Payload
質量 730.00 kg
乾燥質量 700.00 kg
総質量 730.00 kg
長さ 0.30 m
直径 4.10 m
スパン 29.00 m
形状 Box + pan
製造者 SPXS
バスタイプ Starlink V2M
フェーズステータス In Orbit
所有者/国 SPXS/US

大規模コンステレーション

Loading constellations...